Time,TemperatureF,DewpointF,PressureIn,WindDirection,WindDirectionDegrees,WindSpeedMPH,WindSpeedGustMPH,Humidity,HourlyPrecipIn,Conditions,Clouds,dailyrainin,SoftwareType,DateUTC
2013-04-07 00:06:00,54.1,45.6,29.71,SSW,202,0.0,-999.0,73,-99.99,,,0.00,Acu-Link.com,2013-04-07 05:06:00,
2013-04-07 00:21:00,52.3,46.6,29.71,WSW,247,2.2,-999.0,81,-99.99,,,0.00,Acu-Link.com,2013-04-07 05:21:00,
2013-04-07 00:36:00,52.3,45.6,29.72,West,270,1.7,-999.0,78,-99.99,,,0.00,Acu-Link.com,2013-04-07 05:36:00,
2013-04-07 00:52:00,52.2,45.6,29.72,West,270,0.0,-999.0,78,-99.99,,,0.00,Acu-Link.com,2013-04-07 05:52:00,
2013-04-07 01:07:00,51.6,45.3,29.72,SW,225,1.7,-999.0,79,-99.99,,,0.00,Acu-Link.com,2013-04-07 06:07:00,
2013-04-07 01:22:00,51.1,45.1,29.72,SW,225,3.2,-999.0,80,-99.99,,,0.00,Acu-Link.com,2013-04-07 06:22:00,
2013-04-07 01:37:00,52.0,45.4,29.73,WSW,247,1.7,-999.0,78,-99.99,,,0.00,Acu-Link.com,2013-04-07 06:37:00,
2013-04-07 01:52:00,50.9,45.0,29.73,South,180,0.0,-999.0,80,-99.99,,,0.00,Acu-Link.com,2013-04-07 06:52:00,
2013-04-07 02:07:00,49.5,44.2,29.73,NE,45,0.0,-999.0,82,-99.99,,,0.00,Acu-Link.com,2013-04-07 07:07:00,
2013-04-07 02:22:00,47.8,44.7,29.74,SW,225,0.0,-999.0,89,-99.99,,,0.00,Acu-Link.com,2013-04-07 07:22:00,
2013-04-07 02:37:00,46.8,45.4,29.74,ENE,67,0.0,-999.0,95,-99.99,,,0.00,Acu-Link.com,2013-04-07 07:37:00,
2013-04-07 02:52:00,46.0,45.2,29.74,West,270,0.0,-999.0,97,-99.99,,,0.00,Acu-Link.com,2013-04-07 07:52:00,
2013-04-07 03:08:00,46.4,44.5,29.73,WSW,247,0.0,-999.0,93,-99.99,,,0.00,Acu-Link.com,2013-04-07 08:08:00,
2013-04-07 03:39:00,50.4,45.4,29.74,SW,225,3.2,-999.0,83,-99.99,,,0.00,Acu-Link.com,2013-04-07 08:39:00,
2013-04-07 03:54:00,48.2,44.5,29.73,ESE,112,0.0,-999.0,87,-99.99,,,0.00,Acu-Link.com,2013-04-07 08:54:00,
2013-04-07 04:09:00,47.5,44.4,29.73,WNW,292,2.2,-999.0,89,-99.99,,,0.00,Acu-Link.com,2013-04-07 09:09:00,
2013-04-07 04:40:00,48.7,44.4,29.75,WNW,292,2.2,-999.0,85,-99.99,,,0.00,Acu-Link.com,2013-04-07 09:40:00,
2013-04-07 04:55:00,46.2,44.3,29.75,South,180,1.7,-999.0,93,-99.99,,,0.00,Acu-Link.com,2013-04-07 09:55:00,
2013-04-07 05:10:00,44.1,43.0,29.75,South,180,1.7,-999.0,96,-99.99,,,0.00,Acu-Link.com,2013-04-07 10:10:00,
2013-04-07 05:25:00,43.0,41.9,29.75,SSW,202,0.0,-999.0,96,-99.99,,,0.00,Acu-Link.com,2013-04-07 10:25:00,
2013-04-07 05:40:00,42.4,41.9,29.75,South,180,0.0,-999.0,98,-99.99,,,0.00,Acu-Link.com,2013-04-07 10:40:00,
2013-04-07 05:55:00,42.8,42.3,29.75,South,180,2.2,-999.0,98,-99.99,,,0.00,Acu-Link.com,2013-04-07 10:55:00,
2013-04-07 06:10:00,41.2,40.7,29.75,South,180,0.0,-999.0,98,-99.99,,,0.00,Acu-Link.com,2013-04-07 11:10:00,
2013-04-07 06:26:00,41.5,41.0,29.76,NNW,337,0.0,-999.0,98,-99.99,,,0.00,Acu-Link.com,2013-04-07 11:26:00,
2013-04-07 06:41:00,41.5,41.0,29.76,NNE,22,0.0,-999.0,98,-99.99,,,0.00,Acu-Link.com,2013-04-07 11:41:00,
2013-04-07 07:11:00,43.3,42.8,29.77,SSW,202,1.7,-999.0,98,-99.99,,,0.00,Acu-Link.com,2013-04-07 12:11:00,
2013-04-07 07:26:00,46.6,46.1,29.78,SSE,157,0.0,-999.0,98,-99.99,,,0.00,Acu-Link.com,2013-04-07 12:26:00,
2013-04-07 08:11:00,57.4,51.3,29.79,South,180,2.7,-999.0,80,-99.99,,,0.00,Acu-Link.com,2013-04-07 13:11:00,
2013-04-07 08:26:00,59.4,51.8,29.79,SSE,157,1.7,-999.0,76,-99.99,,,0.00,Acu-Link.com,2013-04-07 13:26:00,
2013-04-07 08:41:00,64.8,54.4,29.78,ESE,112,0.0,-999.0,69,-99.99,,,0.00,Acu-Link.com,2013-04-07 13:41:00,
2013-04-07 09:27:00,64.0,53.2,29.78,South,180,0.0,-999.0,68,-99.99,,,0.00,Acu-Link.com,2013-04-07 14:27:00,
2013-04-07 09:57:00,68.4,53.5,29.78,SSE,157,1.1,-999.0,59,-99.99,,,0.00,Acu-Link.com,2013-04-07 14:57:00,
2013-04-07 10:12:00,70.7,54.7,29.78,East,90,0.0,-999.0,57,-99.99,,,0.00,Acu-Link.com,2013-04-07 15:12:00,
2013-04-07 10:27:00,66.9,52.1,29.78,SSE,157,2.7,-999.0,59,-99.99,,,0.00,Acu-Link.com,2013-04-07 15:27:00,
2013-04-07 10:42:00,68.4,54.0,29.79,NE,45,1.1,-999.0,60,-99.99,,,0.00,Acu-Link.com,2013-04-07 15:42:00,
2013-04-07 10:57:00,67.5,51.7,29.79,South,180,6.8,-999.0,57,-99.99,,,0.00,Acu-Link.com,2013-04-07 15:57:00,
2013-04-07 11:13:00,68.0,53.1,29.79,SE,135,4.7,-999.0,59,-99.99,,,0.00,Acu-Link.com,2013-04-07 16:13:00,
2013-04-07 11:28:00,67.5,54.0,29.79,SSE,157,4.7,-999.0,62,-99.99,,,0.00,Acu-Link.com,2013-04-07 16:28:00,
2013-04-07 11:43:00,69.6,54.2,29.78,SSE,157,4.7,-999.0,58,-99.99,,,0.00,Acu-Link.com,2013-04-07 16:43:00,
2013-04-07 11:58:00,69.3,54.3,29.78,South,180,5.3,-999.0,59,-99.99,,,0.00,Acu-Link.com,2013-04-07 16:58:00,
2013-04-07 12:13:00,69.3,54.3,29.77,SSE,157,5.8,-999.0,59,-99.99,,,0.00,Acu-Link.com,2013-04-07 17:13:00,
2013-04-07 12:28:00,71.2,55.7,29.77,SSW,202,6.8,-999.0,58,-99.99,,,0.00,Acu-Link.com,2013-04-07 17:28:00,
2013-04-07 12:43:00,70.7,54.7,29.76,SSE,157,6.3,-999.0,57,-99.99,,,0.00,Acu-Link.com,2013-04-07 17:43:00,
2013-04-07 12:58:00,70.9,55.4,29.76,South,180,7.3,-999.0,58,-99.99,,,0.00,Acu-Link.com,2013-04-07 17:58:00,
2013-04-07 13:59:00,73.6,54.9,29.73,South,180,9.9,-999.0,52,-99.99,,,0.00,Acu-Link.com,2013-04-07 18:59:00,
2013-04-07 14:14:00,74.5,54.6,29.72,SSW,202,15.0,-999.0,50,-99.99,,,0.00,Acu-Link.com,2013-04-07 19:14:00,
2013-04-07 14:44:00,73.6,56.4,29.71,South,180,8.9,-999.0,55,-99.99,,,0.00,Acu-Link.com,2013-04-07 19:44:00,
2013-04-07 15:15:00,73.6,54.3,29.69,SSE,157,13.0,-999.0,51,-99.99,,,0.00,Acu-Link.com,2013-04-07 20:15:00,
2013-04-07 15:30:00,73.4,53.1,29.68,South,180,10.9,-999.0,49,-99.99,,,0.00,Acu-Link.com,2013-04-07 20:30:00,
2013-04-07 15:45:00,75.9,55.4,29.67,South,180,11.4,-999.0,49,-99.99,,,0.00,Acu-Link.com,2013-04-07 20:45:00,
2013-04-07 16:00:00,74.5,55.7,29.67,SSW,202,6.8,-999.0,52,-99.99,,,0.00,Acu-Link.com,2013-04-07 21:00:00,
2013-04-07 16:15:00,73.4,54.7,29.67,South,180,9.9,-999.0,52,-99.99,,,0.00,Acu-Link.com,2013-04-07 21:15:00,
2013-04-07 16:31:00,73.0,55.9,29.67,SSW,202,5.8,-999.0,55,-99.99,,,0.00,Acu-Link.com,2013-04-07 21:31:00,
2013-04-07 17:01:00,70.9,51.3,29.67,SSW,202,2.7,-999.0,50,-99.99,,,0.00,Acu-Link.com,2013-04-07 22:01:00,
2013-04-07 17:31:00,70.2,54.7,29.66,SSE,157,6.3,-999.0,58,-99.99,,,0.00,Acu-Link.com,2013-04-07 22:31:00,
2013-04-07 18:01:00,68.5,56.7,29.64,SE,135,5.3,-999.0,66,-99.99,,,0.00,Acu-Link.com,2013-04-07 23:01:00,
2013-04-07 18:16:00,67.6,56.7,29.63,SE,135,3.7,-999.0,68,-99.99,,,0.00,Acu-Link.com,2013-04-07 23:16:00,
2013-04-07 18:31:00,66.4,57.1,29.63,South,180,7.3,-999.0,72,-99.99,,,0.00,Acu-Link.com,2013-04-07 23:31:00,
2013-04-07 18:47:00,66.0,56.7,29.63,SSE,157,6.8,-999.0,72,-99.99,,,0.00,Acu-Link.com,2013-04-07 23:47:00,
2013-04-07 19:02:00,66.0,55.9,29.61,ESE,112,6.8,-999.0,70,-99.99,,,0.00,Acu-Link.com,2013-04-08 00:02:00,
2013-04-07 19:17:00,65.5,55.1,29.63,SSE,157,8.9,-999.0,69,-99.99,,,0.00,Acu-Link.com,2013-04-08 00:17:00,
2013-04-07 19:32:00,64.9,54.5,29.60,SSE,157,8.9,-999.0,69,-99.99,,,0.00,Acu-Link.com,2013-04-08 00:32:00,
2013-04-07 19:47:00,64.0,54.4,29.59,SSE,157,7.3,-999.0,71,-99.99,,,0.00,Acu-Link.com,2013-04-08 00:47:00,
2013-04-07 20:02:00,63.9,53.9,29.58,SE,135,10.4,-999.0,70,-99.99,,,0.00,Acu-Link.com,2013-04-08 01:02:00,
2013-04-07 20:17:00,63.0,54.6,29.58,South,180,8.3,-999.0,74,-99.99,,,0.00,Acu-Link.com,2013-04-08 01:17:00,
2013-04-07 20:32:00,62.8,55.5,29.60,SSE,157,3.7,-999.0,77,-99.99,,,0.00,Acu-Link.com,2013-04-08 01:32:00,
2013-04-07 20:48:00,61.9,56.3,29.62,NE,45,2.2,-999.0,82,-99.99,,,0.00,Acu-Link.com,2013-04-08 01:48:00,
2013-04-07 21:03:00,60.3,57.0,29.63,SW,225,0.0,-999.0,89,-99.99,,,0.02,Acu-Link.com,2013-04-08 02:03:00,
2013-04-07 21:18:00,58.8,57.1,29.61,SE,135,3.7,-999.0,94,-99.99,,,0.06,Acu-Link.com,2013-04-08 02:18:00,
2013-04-07 21:33:00,57.2,56.6,29.59,NNW,337,3.7,-999.0,98,-99.99,,,0.12,Acu-Link.com,2013-04-08 02:33:00,
2013-04-07 21:48:00,57.0,56.4,29.61,NNE,22,8.9,-999.0,98,-99.99,,,0.19,Acu-Link.com,2013-04-08 02:48:00,
2013-04-07 22:18:00,57.6,57.0,29.61,SSW,202,4.2,-999.0,98,-99.99,,,0.24,Acu-Link.com,2013-04-08 03:18:00,
2013-04-07 22:33:00,56.5,55.9,29.63,NW,315,10.4,-999.0,98,-99.99,,,0.31,Acu-Link.com,2013-04-08 03:33:00,
2013-04-07 22:48:00,56.7,56.1,29.60,NE,45,8.3,-999.0,98,-99.99,,,0.33,Acu-Link.com,2013-04-08 03:48:00,
2013-04-07 23:49:00,57.0,56.4,29.59,SE,135,1.7,-999.0,98,-99.99,,,0.44,Acu-Link.com,2013-04-08 04:49:00,